When you browse on this site, cookies collect data to enhance your experience and personalize the content and advertising you see.
Visit our Privacy Policy to learn more. By continuing to use the site, you agree to this use of cookies and data.
  • In Hungary
  • List of Countries
  • For 7 days
  • Water Temperature
  • Satellite Maps
  • Weather Map
  • News
  • Weather Widgets
  • user-avatar
    Login

    Hourly Weather Houston

    Today, 18 February, Monday

    Time Temperature Precipitation Wind Pressure Humidity
    00:00 +10°C° 0 mm 5 mps 761 mmHg 56%
    01:00 +9°C° 0 mm 5 mps 762 mmHg 54%
    02:00 +9°C° 0 mm 5 mps 762 mmHg 52%
    03:00 +8°C° 0 mm 6 mps 763 mmHg 51%
    04:00 +8°C° 0 mm 6 mps 763 mmHg 52%
    05:00 +8°C° 0 mm 6 mps 763 mmHg 53%
    06:00 +8°C° 0 mm 5 mps 763 mmHg 58%
    07:00 +8°C° 0 mm 5 mps 764 mmHg 56%
    08:00 +9°C° 0 mm 5 mps 764 mmHg 54%
    09:00 +9°C° 0 mm 6 mps 765 mmHg 52%
    10:00 +11°C° 0 mm 6 mps 765 mmHg 48%
    11:00 +14°C° 0 mm 5 mps 765 mmHg 43%
    12:00 +15°C° 0 mm 5 mps 765 mmHg 39%
    13:00 +16°C° 0 mm 5 mps 764 mmHg 37%
    14:00 +17°C° 0 mm 5 mps 764 mmHg 35%
    15:00 +19°C° 0 mm 5 mps 764 mmHg 33%
    16:00 +17°C° 0 mm 5 mps 764 mmHg 34%
    17:00 +16°C° 0 mm 5 mps 764 mmHg 36%
    18:00 +16°C° 0 mm 5 mps 764 mmHg 37%
    19:00 +15°C° 0 mm 5 mps 764 mmHg 39%
    20:00 +14°C° 0 mm 5 mps 764 mmHg 40%
    21:00 +13°C° 0 mm 6 mps 765 mmHg 42%
    22:00 +13°C° 0 mm 6 mps 765 mmHg 47%
    23:00 +12°C° 0 mm 5 mps 764 mmHg 52%

    Tomorrow, 19 February, Tuesday

    Time Temperature Precipitation Wind Pressure Humidity
    00:00 +12°C° 0 mm 5 mps 764 mmHg 57%
    01:00 +10°C° 0 mm 5 mps 764 mmHg 59%
    02:00 +10°C° 0 mm 5 mps 763 mmHg 61%
    03:00 +10°C° 0 mm 5 mps 763 mmHg 62%
    04:00 +10°C° 0.2 mm 5 mps 763 mmHg 65%
    05:00 +10°C° 0.2 mm 5 mps 762 mmHg 68%
    06:00 +9°C° 0.2 mm 5 mps 762 mmHg 71%
    07:00 +9°C° 0.9 mm 5 mps 762 mmHg 76%
    08:00 +9°C° 0.9 mm 5 mps 761 mmHg 80%
    09:00 +9°C° 0.9 mm 5 mps 761 mmHg 84%
    10:00 +10°C° 0.9 mm 4 mps 761 mmHg 85%
    11:00 +10°C° 0.9 mm 4 mps 760 mmHg 86%
    12:00 +11°C° 0.9 mm 4 mps 760 mmHg 87%
    13:00 +11°C° 0.4 mm 4 mps 759 mmHg 86%
    14:00 +11°C° 0.4 mm 3 mps 758 mmHg 86%
    15:00 +12°C° 0.4 mm 3 mps 756 mmHg 86%
    16:00 +12°C° 0.1 mm 3 mps 756 mmHg 87%
    17:00 +12°C° 0.1 mm 3 mps 756 mmHg 87%
    18:00 +14°C° 0.1 mm 2 mps 756 mmHg 88%
    19:00 +14°C° 0 mm 2 mps 756 mmHg 90%
    20:00 +14°C° 0 mm 1 mps 756 mmHg 92%
    21:00 +15°C° 0 mm 1 mps 756 mmHg 95%
    22:00 +16°C° 0 mm 1 mps 756 mmHg 96%
    23:00 +16°C° 0 mm 2 mps 756 mmHg 97%

    Day after tomorrow, 20 February, Wednesday

    Time Temperature Precipitation Wind Pressure Humidity
    00:00 +17°C° 0 mm 3 mps 755 mmHg 99%
    01:00 +17°C° 0.3 mm 3 mps 755 mmHg 97%
    02:00 +17°C° 0.3 mm 3 mps 756 mmHg 96%
    03:00 +17°C° 0.3 mm 3 mps 756 mmHg 95%
    04:00 +16°C° 0.5 mm 3 mps 756 mmHg 93%
    05:00 +16°C° 0.5 mm 3 mps 756 mmHg 91%
    06:00 +14°C° 0.5 mm 3 mps 756 mmHg 89%
    07:00 +14°C° 0.1 mm 3 mps 757 mmHg 87%
    08:00 +14°C° 0.1 mm 3 mps 758 mmHg 85%
    09:00 +14°C° 0.1 mm 4 mps 759 mmHg 83%
    10:00 +14°C° 0 mm 3 mps 759 mmHg 81%
    11:00 +14°C° 0 mm 3 mps 759 mmHg 79%
    12:00 +14°C° 0 mm 3 mps 759 mmHg 77%
    13:00 +16°C° 0 mm 3 mps 759 mmHg 68%
    14:00 +18°C° 0 mm 3 mps 758 mmHg 58%
    15:00 +20°C° 0 mm 2 mps 758 mmHg 49%
    16:00 +19°C° 0 mm 2 mps 758 mmHg 50%
    17:00 +19°C° 0 mm 2 mps 758 mmHg 51%
    18:00 +19°C° 0 mm 1 mps 758 mmHg 52%
    19:00 +19°C° 0 mm 1 mps 759 mmHg 53%
    20:00 +19°C° 0 mm 1 mps 759 mmHg 55%
    21:00 +17°C° 0 mm 2 mps 760 mmHg 56%
    22:00 +17°C° 0 mm 2 mps 760 mmHg 57%
    23:00 +16°C° 0 mm 2 mps 760 mmHg 58%

    21 February, Thursday

    Time Temperature Precipitation Wind Pressure Humidity
    00:00 +16°C° 0 mm 2 mps 760 mmHg 59%
    01:00 +15°C° 0 mm 2 mps 760 mmHg 60%
    02:00 +14°C° 0 mm 3 mps 760 mmHg 61%
    03:00 +14°C° 0 mm 3 mps 759 mmHg 62%
    04:00 +14°C° 0.5 mm 3 mps 759 mmHg 65%
    05:00 +14°C° 0.5 mm 3 mps 759 mmHg 68%
    06:00 +14°C° 0.5 mm 3 mps 759 mmHg 72%
    07:00 +14°C° 0.7 mm 3 mps 760 mmHg 73%
    08:00 +14°C° 0.7 mm 4 mps 760 mmHg 75%
    09:00 +14°C° 0.7 mm 5 mps 761 mmHg 76%
    10:00 +14°C° 0.4 mm 4 mps 760 mmHg 78%
    11:00 +15°C° 0.4 mm 4 mps 760 mmHg 80%
    12:00 +16°C° 0.4 mm 3 mps 760 mmHg 82%
    13:00 +16°C° 0.1 mm 3 mps 760 mmHg 84%
    14:00 +16°C° 0.1 mm 3 mps 759 mmHg 85%
    15:00 +16°C° 0.1 mm 3 mps 758 mmHg 86%
    16:00 +16°C° 0 mm 3 mps 758 mmHg 87%
    17:00 +16°C° 0 mm 3 mps 759 mmHg 87%
    18:00 +16°C° 0 mm 3 mps 759 mmHg 88%
    19:00 +16°C° 0 mm 3 mps 759 mmHg 89%
    20:00 +14°C° 0 mm 3 mps 759 mmHg 89%
    21:00 +14°C° 0 mm 4 mps 760 mmHg 90%
    22:00 +14°C° 0 mm 3 mps 759 mmHg 91%
    23:00 +14°C° 0 mm 3 mps 759 mmHg 92%

    22 February, Friday

    Time Temperature Precipitation Wind Pressure Humidity
    00:00 +14°C° 0 mm 3 mps 759 mmHg 93%
    01:00 +16°C° 0.1 mm 3 mps 759 mmHg 94%
    02:00 +16°C° 0.1 mm 2 mps 759 mmHg 94%
    03:00 +16°C° 0.1 mm 2 mps 759 mmHg 95%
    04:00 +16°C° 0.4 mm 2 mps 759 mmHg 96%
    05:00 +17°C° 0.4 mm 2 mps 759 mmHg 97%
    06:00 +17°C° 0.4 mm 2 mps 759 mmHg 98%
    07:00 +18°C° 0.1 mm 2 mps 760 mmHg 97%
    08:00 +19°C° 0.1 mm 3 mps 760 mmHg 97%
    09:00 +20°C° 0.1 mm 3 mps 760 mmHg 97%
    10:00 +21°C° 0 mm 3 mps 760 mmHg 91%
    11:00 +23°C° 0 mm 4 mps 760 mmHg 86%
    12:00 +26°C° 0 mm 4 mps 760 mmHg 80%
    13:00 +27°C° 0 mm 5 mps 759 mmHg 76%
    14:00 +27°C° 0 mm 5 mps 758 mmHg 73%
    15:00 +28°C° 0 mm 5 mps 757 mmHg 69%
    16:00 +27°C° 0 mm 5 mps 757 mmHg 75%
    17:00 +26°C° 0 mm 4 mps 758 mmHg 80%
    18:00 +25°C° 0 mm 3 mps 758 mmHg 86%
    19:00 +25°C° 0 mm 3 mps 758 mmHg 88%
    20:00 +24°C° 0 mm 3 mps 758 mmHg 90%
    21:00 +24°C° 0 mm 3 mps 759 mmHg 93%
    22:00 +24°C° 0 mm 3 mps 758 mmHg 93%
    23:00 +23°C° 0 mm 4 mps 758 mmHg 93%

    23 February, Saturday

    Time Temperature Precipitation Wind Pressure Humidity
    00:00 +23°C° 0 mm 5 mps 758 mmHg 93%
    01:00 +23°C° 0 mm 4 mps 758 mmHg 94%
    02:00 +22°C° 0 mm 4 mps 758 mmHg 94%
    03:00 +22°C° 0 mm 4 mps 757 mmHg 94%
    04:00 +22°C° 0.1 mm 4 mps 757 mmHg 93%
    05:00 +22°C° 0.1 mm 5 mps 757 mmHg 93%
    06:00 +22°C° 0.1 mm 5 mps 757 mmHg 92%
    07:00 +23°C° 0.1 mm 6 mps 757 mmHg 91%
    08:00 +23°C° 0.1 mm 6 mps 758 mmHg 89%
    09:00 +23°C° 0.1 mm 6 mps 758 mmHg 88%
    10:00 +24°C° 0.1 mm 7 mps 758 mmHg 83%
    11:00 +26°C° 0.1 mm 7 mps 757 mmHg 79%
    12:00 +27°C° 0.1 mm 8 mps 757 mmHg 74%
    13:00 +27°C° 0.8 mm 7 mps 757 mmHg 72%
    14:00 +27°C° 0.8 mm 6 mps 756 mmHg 70%
    15:00 +26°C° 0.8 mm 6 mps 756 mmHg 68%
    16:00 +26°C° 0.2 mm 5 mps 756 mmHg 68%
    17:00 +25°C° 0.2 mm 4 mps 756 mmHg 69%
    18:00 +24°C° 0.2 mm 3 mps 756 mmHg 70%
    19:00 +24°C° 0 mm 3 mps 757 mmHg 75%
    20:00 +22°C° 0 mm 3 mps 757 mmHg 79%
    21:00 +22°C° 0 mm 3 mps 758 mmHg 84%
    22:00 +21°C° 0 mm 3 mps 758 mmHg 85%
    23:00 +21°C° 0 mm 3 mps 759 mmHg 86%
    Show more